• In Belarus
  • List of Countries
  • For 7 days
  • Water Temperature
  • Satellite Maps
  • Weather Map
  • Weather Widgets
  • user-avatar
    Login

    Hourly Weather Andora

    Today, 17 October, Wednesday

    Time Temperature Precipitation Wind Pressure Humidity
    00:00 +7°C° 0 mm 1 mps 625 mmHg 91%
    01:00 +6°C° 0 mm 1 mps 625 mmHg 91%
    02:00 +6°C° 0 mm 1 mps 625 mmHg 90%
    03:00 +6°C° 0 mm 1 mps 624 mmHg 89%
    04:00 +6°C° 0 mm 1 mps 624 mmHg 89%
    05:00 +6°C° 0 mm 1 mps 624 mmHg 88%
    06:00 +6°C° 0 mm 1 mps 624 mmHg 88%
    07:00 +8°C° 0 mm 1 mps 625 mmHg 82%
    08:00 +9°C° 0 mm 0 mps 626 mmHg 76%
    09:00 +10°C° 0 mm 0 mps 626 mmHg 70%
    10:00 +12°C° 0 mm 1 mps 626 mmHg 68%
    11:00 +13°C° 0 mm 1 mps 626 mmHg 66%
    12:00 +13°C° 0 mm 1 mps 626 mmHg 64%
    13:00 +13°C° 0.1 mm 1 mps 626 mmHg 66%
    14:00 +13°C° 0.1 mm 1 mps 625 mmHg 68%
    15:00 +12°C° 0.1 mm 1 mps 625 mmHg 70%
    16:00 +11°C° 0.1 mm 1 mps 624 mmHg 76%
    17:00 +9°C° 0.1 mm 0 mps 624 mmHg 82%
    18:00 +8°C° 0.1 mm 0 mps 624 mmHg 88%
    19:00 +7°C° 0.1 mm 0 mps 624 mmHg 89%
    20:00 +8°C° 0.1 mm 1 mps 624 mmHg 90%
    21:00 +8°C° 0.1 mm 1 mps 624 mmHg 91%
    22:00 +8°C° 0.4 mm 1 mps 624 mmHg 91%
    23:00 +8°C° 0.4 mm 1 mps 623 mmHg 91%

    Tomorrow, 18 October, Thursday

    Time Temperature Precipitation Wind Pressure Humidity
    00:00 +8°C° 0.4 mm 1 mps 623 mmHg 91%
    01:00 +8°C° 1.2 mm 1 mps 623 mmHg 91%
    02:00 +8°C° 1.2 mm 1 mps 623 mmHg 91%
    03:00 +8°C° 1.2 mm 1 mps 623 mmHg 91%
    04:00 +8°C° 1.3 mm 1 mps 623 mmHg 91%
    05:00 +8°C° 1.3 mm 1 mps 623 mmHg 91%
    06:00 +8°C° 1.3 mm 1 mps 623 mmHg 91%
    07:00 +8°C° 0.8 mm 1 mps 623 mmHg 88%
    08:00 +9°C° 0.8 mm 1 mps 624 mmHg 86%
    09:00 +9°C° 0.8 mm 1 mps 624 mmHg 84%
    10:00 +10°C° 0.5 mm 1 mps 624 mmHg 82%
    11:00 +10°C° 0.5 mm 1 mps 625 mmHg 80%
    12:00 +10°C° 0.5 mm 2 mps 625 mmHg 79%
    13:00 +10°C° 0.1 mm 2 mps 625 mmHg 79%
    14:00 +10°C° 0.1 mm 2 mps 624 mmHg 78%
    15:00 +11°C° 0.1 mm 1 mps 624 mmHg 78%
    16:00 +10°C° 0 mm 1 mps 624 mmHg 83%
    17:00 +9°C° 0 mm 1 mps 624 mmHg 87%
    18:00 +9°C° 0 mm 1 mps 624 mmHg 91%
    19:00 +8°C° 0 mm 1 mps 624 mmHg 91%
    20:00 +8°C° 0 mm 1 mps 624 mmHg 91%
    21:00 +7°C° 0 mm 2 mps 624 mmHg 91%
    22:00 +7°C° 0 mm 2 mps 624 mmHg 91%
    23:00 +7°C° 0 mm 2 mps 624 mmHg 91%

    Day after tomorrow, 19 October, Friday

    Time Temperature Precipitation Wind Pressure Humidity
    00:00 +7°C° 0 mm 2 mps 624 mmHg 91%
    01:00 +7°C° 0 mm 2 mps 624 mmHg 91%
    02:00 +6°C° 0 mm 2 mps 624 mmHg 90%
    03:00 +6°C° 0 mm 2 mps 624 mmHg 90%
    04:00 +6°C° 0 mm 2 mps 624 mmHg 90%
    05:00 +6°C° 0 mm 2 mps 624 mmHg 90%
    06:00 +6°C° 0 mm 2 mps 624 mmHg 90%
    07:00 +8°C° 0 mm 2 mps 625 mmHg 85%
    08:00 +9°C° 0 mm 2 mps 626 mmHg 80%
    09:00 +12°C° 0 mm 2 mps 627 mmHg 74%
    10:00 +13°C° 0 mm 2 mps 628 mmHg 71%
    11:00 +14°C° 0 mm 2 mps 628 mmHg 67%
    12:00 +15°C° 0 mm 2 mps 628 mmHg 64%
    13:00 +14°C° 0.2 mm 2 mps 628 mmHg 67%
    14:00 +14°C° 0.2 mm 2 mps 628 mmHg 70%
    15:00 +13°C° 0.2 mm 2 mps 627 mmHg 73%
    16:00 +12°C° 0.4 mm 2 mps 627 mmHg 79%
    17:00 +11°C° 0.4 mm 1 mps 627 mmHg 85%
    18:00 +10°C° 0.4 mm 1 mps 627 mmHg 91%
    19:00 +10°C° 0.5 mm 1 mps 627 mmHg 91%
    20:00 +9°C° 0.5 mm 1 mps 627 mmHg 92%
    21:00 +9°C° 0.5 mm 1 mps 628 mmHg 92%
    22:00 +9°C° 0.6 mm 1 mps 628 mmHg 92%
    23:00 +9°C° 0.6 mm 1 mps 628 mmHg 92%

    20 October, Saturday

    Time Temperature Precipitation Wind Pressure Humidity
    00:00 +9°C° 0.6 mm 1 mps 628 mmHg 92%
    01:00 +9°C° 0.7 mm 1 mps 628 mmHg 92%
    02:00 +9°C° 0.7 mm 1 mps 628 mmHg 92%
    03:00 +9°C° 0.7 mm 1 mps 627 mmHg 92%
    04:00 +8°C° 0.6 mm 1 mps 628 mmHg 92%
    05:00 +8°C° 0.6 mm 1 mps 628 mmHg 92%
    06:00 +8°C° 0.6 mm 1 mps 628 mmHg 91%
    07:00 +9°C° 0.4 mm 1 mps 628 mmHg 87%
    08:00 +10°C° 0.4 mm 1 mps 629 mmHg 83%
    09:00 +11°C° 0.4 mm 1 mps 630 mmHg 79%
    10:00 +12°C° 0.4 mm 1 mps 630 mmHg 77%
    11:00 +13°C° 0.4 mm 1 mps 630 mmHg 74%
    12:00 +13°C° 0.4 mm 1 mps 630 mmHg 71%
    13:00 +13°C° 0.9 mm 1 mps 630 mmHg 73%
    14:00 +13°C° 0.9 mm 1 mps 629 mmHg 76%
    15:00 +12°C° 0.9 mm 1 mps 629 mmHg 78%
    16:00 +11°C° 1.5 mm 1 mps 629 mmHg 83%
    17:00 +10°C° 1.5 mm 1 mps 629 mmHg 87%
    18:00 +9°C° 1.5 mm 1 mps 628 mmHg 92%
    19:00 +9°C° 1.4 mm 1 mps 628 mmHg 92%
    20:00 +9°C° 1.4 mm 1 mps 629 mmHg 93%
    21:00 +9°C° 1.4 mm 1 mps 629 mmHg 93%
    22:00 +9°C° 0.9 mm 1 mps 628 mmHg 93%
    23:00 +8°C° 0.9 mm 1 mps 628 mmHg 93%

    21 October, Sunday

    Time Temperature Precipitation Wind Pressure Humidity
    00:00 +8°C° 0.9 mm 1 mps 628 mmHg 92%
    01:00 +8°C° 0.3 mm 1 mps 628 mmHg 92%
    02:00 +8°C° 0.3 mm 1 mps 628 mmHg 92%
    03:00 +7°C° 0.3 mm 1 mps 628 mmHg 91%
    04:00 +7°C° 0 mm 1 mps 628 mmHg 91%
    05:00 +7°C° 0 mm 1 mps 628 mmHg 91%
    06:00 +7°C° 0 mm 1 mps 628 mmHg 91%
    07:00 +8°C° 0 mm 1 mps 628 mmHg 87%
    08:00 +10°C° 0 mm 1 mps 629 mmHg 82%
    09:00 +10°C° 0 mm 2 mps 630 mmHg 78%
    10:00 +12°C° 0 mm 2 mps 630 mmHg 75%
    11:00 +13°C° 0 mm 2 mps 630 mmHg 72%
    12:00 +13°C° 0 mm 2 mps 631 mmHg 69%
    13:00 +13°C° 0.1 mm 2 mps 630 mmHg 69%
    14:00 +13°C° 0.1 mm 2 mps 630 mmHg 69%
    15:00 +13°C° 0.1 mm 2 mps 630 mmHg 70%
    16:00 +12°C° 0.1 mm 2 mps 630 mmHg 77%
    17:00 +10°C° 0.1 mm 1 mps 629 mmHg 83%
    18:00 +9°C° 0.1 mm 1 mps 629 mmHg 90%
    19:00 +9°C° 0 mm 1 mps 629 mmHg 90%
    20:00 +8°C° 0 mm 1 mps 629 mmHg 91%
    21:00 +8°C° 0 mm 1 mps 629 mmHg 91%
    22:00 +8°C° 0 mm 1 mps 629 mmHg 91%
    23:00 +8°C° 0 mm 1 mps 628 mmHg 90%

    22 October, Monday

    Time Temperature Precipitation Wind Pressure Humidity
    00:00 +7°C° 0 mm 1 mps 628 mmHg 89%
    01:00 +7°C° 0 mm 1 mps 628 mmHg 88%
    02:00 +7°C° 0 mm 1 mps 628 mmHg 87%
    03:00 +7°C° 0 mm 1 mps 628 mmHg 87%
    04:00 +7°C° 0 mm 1 mps 628 mmHg 85%
    05:00 +7°C° 0 mm 1 mps 628 mmHg 84%
    06:00 +7°C° 0 mm 1 mps 628 mmHg 83%
    07:00 +8°C° 0 mm 1 mps 628 mmHg 77%
    08:00 +10°C° 0 mm 1 mps 629 mmHg 70%
    09:00 +12°C° 0 mm 1 mps 630 mmHg 64%
    10:00 +13°C° 0 mm 1 mps 630 mmHg 61%
    11:00 +14°C° 0 mm 1 mps 630 mmHg 58%
    12:00 +14°C° 0 mm 1 mps 630 mmHg 55%
    13:00 +14°C° 0.1 mm 1 mps 630 mmHg 57%
    14:00 +14°C° 0.1 mm 1 mps 629 mmHg 59%
    15:00 +13°C° 0.1 mm 1 mps 629 mmHg 62%
    16:00 +12°C° 0.1 mm 1 mps 628 mmHg 68%
    17:00 +9°C° 0.1 mm 0 mps 628 mmHg 75%
    18:00 +8°C° 0.1 mm 0 mps 627 mmHg 81%
    19:00 +7°C° 0.1 mm 0 mps 627 mmHg 83%
    20:00 +8°C° 0.1 mm 1 mps 627 mmHg 84%
    21:00 +8°C° 0.1 mm 1 mps 627 mmHg 85%
    22:00 +8°C° 0.1 mm 1 mps 627 mmHg 86%
    23:00 +8°C° 0.1 mm 1 mps 627 mmHg 86%
    Show more